Regional Weather Roundup
Issued by NWS

Home | Current Version | Previous Version | Graphics & Text | Print | Product List | Glossary Off
Versions: 1 2 3 4 5 6 7 8 9 10 11 12 13 14 15 16 17 18 19 20 21 22 23 24 25 26 27 28 29 30 31 32 33 34 35 36 37 38 39 40 41 42 43 44 45 46 47 48 49 50

000
ASUS43 KDMX 030304
RWRIA

WEATHER ROUNDUP FOR IOWA
NATIONAL WEATHER SERVICE DES MOINES IA
  ISSUED BY NWS QUAD CITIES IA IL
900 PM CST MON MAR 02 2015

NOTE: "FAIR" INDICATES FEW OR NO CLOUDS BELOW 12,000 FEET WITH NO
SIGNIFICANT WEATHER AND/OR OBSTRUCTIONS TO VISIBILITY.

* - THESE STATIONS ARE NOT NWS STATIONS...THUS NOT UNDER NWS
QUALITY CONTROL.  THEY ALSO DO NOT REPORT WEATHER SUCH
AS PRECIPITATION OR FOG.

IAZ001>003-012>014-020>022-031>034-043>046-030400-
   NORTHWEST IOWA

CITY           SKY/WX    TMP DP  RH WIND       PRES   REMARKS
CARROLL *      CLOUDY    27  21  80 SE16      30.06F WCI  14
CHEROKEE *     CLOUDY    28  21  74 SE16      30.02F WCI  17
DENNISON *     CLOUDY    28  21  74 SE12G18   30.02F WCI  18
LE MARS *      CLOUDY    30  21  69 SE18G29   29.98F WCI  18
ORANGE CITY *  CLOUDY    28  19  69 SE14G20   29.98F WCI  17
SHELDON *      CLOUDY    27  19  74 SE20      29.99F WCI  13
SIOUX CITY     CLOUDY    34  21  59 SE13      29.99F WCI  25
SPENCER        CLOUDY    26  19  74 SE18G24   30.03F WCI  13
STORM LAKE *   CLOUDY    27  19  74 SE17      30.03F WCI  14
$$

IAZ055>058-069>071-079>083-090>094-030400-
   SOUTHWEST IOWA

CITY           SKY/WX    TMP DP  RH WIND       PRES   REMARKS
ATLANTIC *     CLOUDY    30  21  69 SE12G18   30.05F WCI  21
AUDUBON *      CLOUDY    28  19  69 SE10      30.07F WCI  19
CLARINDA *     CLOUDY    32  19  59 SE15G21   30.09F WCI  22
COUNCIL BLFS * CLOUDY    32  19  59 S20       30.01F WCI  20
CRESTON *      MOCLDY    28  21  74 SE15      30.08F WCI  17
HARLAN *       CLOUDY    30  23  74 SE14G22   30.08F WCI  20
LAMONI         CLOUDY    31  19  61 SE15      30.12F WCI  20
RED OAK *      CLOUDY    32  19  59 S13       30.06F WCI  22
SHENANDOAH *   CLOUDY    32  19  59 SE15G23   30.05F WCI  22
$$

IAZ047>049-059>061-072>074-084-030400-
   CENTRAL IOWA

CITY           SKY/WX    TMP DP  RH WIND       PRES   REMARKS
AMES           CLOUDY    27  17  66 SE13      30.13F WCI  16
ANKENY *       CLOUDY    28  19  69 SE10      30.14F WCI  19
BOONE *        CLOUDY    27  21  80 SE15      30.09F WCI  15
CHARITON *     CLOUDY    28  19  69 SE12G18   30.14F WCI  18
DES MOINES     CLOUDY    30  17  58 SE10G21   30.14F WCI  21
GRINNELL *     CLOUDY    26  19  76 E9        30.17F WCI  17
KNOXVILLE *    CLOUDY    28  18  64 SE13G18   30.14F WCI  18
MARSHALLTOWN   CLOUDY    25  17  72 SE13      30.16F WCI  14
NEWTON *       CLOUDY    27  19  74 SE12      30.16F WCI  16
PELLA *        CLOUDY    28  22  80 SE7       30.18F WCI  20
PERRY *          N/A     28  22  76 SE12      30.10F WCI  18
$$

IAZ004>006-015-016-023>025-035-036-030400-
   NORTH CENTRAL IOWA

CITY           SKY/WX    TMP DP  RH WIND       PRES   REMARKS
ALGONA *       CLOUDY    23  19  86 SE18G24   30.08F WCI   9
CLARION *      CLOUDY    23  19  86 SE16      30.11F WCI  10
ESTHERVILLE    CLOUDY    23  19  85 SE17      30.05F WCI   9
FORT DODGE *   CLOUDY    25  18  74 SE12      30.10F WCI  14
MASON CITY     CLOUDY    21  12  68 SE14      30.15F WCI   8
FOREST CITY *  CLOUDY    23  14  68 SE16      30.11F WCI  10
WEBSTER CITY * CLOUDY    25  19  80 SE16      30.09F WCI  12
IOWA FALLS *   CLOUDY    24  18  78 SE10      30.17S WCI  13
$$

IAZ007>011-017>019-026>030-037>042-050>054-066-030400-
   NORTHEAST IOWA

CITY           SKY/WX    TMP DP  RH WIND       PRES   REMARKS
CEDAR RAPIDS   CLOUDY    24  18  77 SE7       30.22F WCI  16
CHARLES CITY * CLOUDY    21  16  79 SE10      30.19S WCI  10
CLINTON *      CLOUDY    27  19  74 SE9       30.29F WCI  17
DECORAH *      CLOUDY    23  14  68 S8        30.17F WCI  14
DUBUQUE        CLOUDY    22  16  78 SE10      30.23F WCI  11
MONTICELLO *   CLOUDY    25  19  80 SE8       30.24F WCI  16
OELWEIN *      CLOUDY    23  16  74 SE10      30.20F WCI  12
WATERLOO       CLOUDY    24  16  71 SE9       30.20F WCI  14
$$

IAZ064-065-067-068-078-030400-
   EAST CENTRAL IOWA

CITY           SKY/WX    TMP DP  RH WIND       PRES   REMARKS
DAVENPORT      CLOUDY    26  16  65 SE8       30.26F WCI  18
IOWA CITY      CLOUDY    26  16  65 SE7       30.25F WCI  18
MT. PLEASANT * FAIR      27  19  73 SE7       30.23F WCI  19
MUSCATINE *    CLOUDY    28  19  69 SE6       30.26F WCI  22
QUAD CITIES    CLOUDY    27  18  69 SE8       30.26F WCI  19
$$

IAZ062-063-075>077-085>089-095>099-030400-
   SOUTHEAST IOWA

CITY           SKY/WX    TMP DP  RH WIND       PRES   REMARKS
BURLINGTON     MOCLDY    27  20  75 SE8       30.24S WCI  19
FAIRFIELD *    CLOUDY    27  18  69 SE9       30.21F WCI  17
FORT MADISON * MOCLDY    28  19  69 SE8       30.25F WCI  20
KEOKUK *       CLOUDY    30  21  69 SE12      30.23F WCI  21
OSKALOOSA *    FAIR      26  18  73 SE7       30.18F WCI  18
CENTERVILLE *  FAIR      28  19  69 SE10      30.16F WCI  19
OTTUMWA        MOCLDY    26  17  68 SE13      30.17F WCI  15
WASHINGTON *   MOCLDY    27  23  86 SE10      30.22F WCI  17
$$

ABBREVIATIONS USED IN REMARKS
   TC - TEMPERATURES IN CELSIUS
  WCI - WIND CHILL INDEX
   HX - HEAT INDEX
  VSB - VISIBILITY
$$



USA.gov is the U.S. government's official web portal to all federal, state and local government web resources and services.